Voltar ao catálogo

SL-8 R/B

AtivoPO
NORAD 22007·ROCKET BODY·🇷🇺 Russia

Lançado Jul 1, 1992 de Plesetsk Cosmodrome

Loading…

Próximas Passagens (próximas 24 horas)

TLE

AtualizadoSource: Space-Track

Época: Sep 14, 2026, 13:59 UTC

1 22007U 92036B   26257.58306599  .00000118  00000-0  10167-3 0  9996
2 22007  82.9312 303.4401 0029535 212.8361 147.0963 13.78290329648248

Acompanhe SL-8 R/B em tempo real com AllMySat

Download on the App Store